[[{"header":{"parameterUnit":"m.s-1","parameterCategory":1,"la1":30.2992,"la2":30.254,"lo1":-89.0895,"lo2":-89.0443,"dy":0.0025,"dx":0.0025,"nx":19,"ny":19,"refTime":"2026-05-23T09:00:00:Z","depth":0,"parameterNumber":2,"parameterNumberName":"U-component_of_WINDS"},"data":[0,0,0,-2.494,-2.4938,-2.481,-2.481,-2.4662,-2.466,0,0,0,0,0,0,0,0,0,0,0,-2.499,-2.499,-2.494,-2.4937,-2.4811,-2.481,-2.4662,-2.466,0,0,0,0,0,0,0,0,0,0,0,-2.499,-2.499,-2.4989,-2.4937,-2.4811,-2.481,-2.4662,-2.4752,0,0,0,0,0,0,0,0,0,0,-2.4873,-2.4932,-2.499,-2.4989,-2.4936,-2.4811,-2.481,-2.4756,-2.4746,-2.4727,0,-2.4716,0,-2.4686,-2.4652,-2.4651,0,0,0,-2.4927,-2.494,-2.4895,-2.4989,-2.4935,-2.4811,-2.4865,-2.475,-2.474,-2.4714,-2.4713,-2.4707,-2.4684,-2.4651,-2.465,-2.4579,-2.4579,0,0,-2.4934,-2.4973,-2.4903,-2.4889,-2.4914,-2.4869,-2.4861,-2.4744,-2.4744,-2.4713,-2.4704,-2.4681,-2.465,-2.4649,-2.4579,-2.4579,0,0,0,-2.4961,-2.4979,-2.4936,-2.4895,-2.4872,-2.4866,-2.4856,-2.4749,-2.4732,-2.4702,-2.468,-2.4649,-2.4648,-2.4579,-2.4579,-2.4625,0,0,0,-2.4965,-2.4994,-2.4939,-2.4962,-2.4874,-2.481,-2.4865,-2.474,-2.4726,-2.468,-2.4649,-2.4647,-2.4579,-2.4579,-2.4624,-2.464,0,0,0,-2.4994,-2.4997,-2.4984,-2.4964,-2.4912,-2.4811,-2.4787,-2.4736,-2.4713,-2.4651,-2.4646,-2.4578,-2.4579,-2.4622,-2.4637,-2.4632,0,0,0,-2.5035,-2.5026,-2.4985,-2.4965,-2.4913,-2.4842,-2.4787,-2.4731,-2.4684,-2.4649,-2.4579,-2.4579,-2.4622,-2.4635,-2.463,-2.4634,-2.4639,0,0,-2.5044,-2.5028,-2.5013,-2.4973,-2.492,-2.4858,-2.4809,-2.4728,-2.4684,-2.4616,-2.4613,-2.4624,-2.4637,-2.4631,-2.4659,-2.4664,0,0,0,-2.5029,-2.5018,-2.4996,-2.4955,-2.4894,-2.4842,-2.4765,-2.4734,-2.4674,-2.4659,-2.462,-2.4626,-2.4622,-2.4621,-2.4625,-2.4618,-2.4581,-2.4581,-2.4581,-2.5096,-2.5044,-2.5015,-2.4947,-2.4908,-2.4828,-2.479,-2.4734,-2.4691,-2.4683,-2.4662,-2.4686,-2.4687,-2.469,-2.4682,-2.466,-2.4661,-2.4661,-2.4661,-2.5103,-2.5079,-2.5024,-2.4977,-2.492,-2.4878,-2.48,-2.4771,-2.4721,-2.4697,-2.469,-2.4667,-2.4697,-2.4687,-2.4664,-2.4663,-2.4663,-2.4663,-2.4662,-2.5139,-2.5119,-2.5084,-2.5019,-2.4974,-2.4904,-2.486,-2.481,-2.4761,-2.4755,-2.4726,-2.4725,-2.4716,-2.4745,-2.4745,-2.4745,-2.4745,-2.4745,-2.4745,-2.5191,-2.515,-2.5121,-2.5057,-2.5023,-2.4972,-2.4892,-2.4857,-2.4804,-2.477,-2.4769,-2.4726,-2.4711,-2.4707,-2.4746,-2.4746,-2.4746,-2.4746,-2.4746,-2.5214,-2.5201,-2.5156,-2.5123,-2.5042,-2.5,-2.4937,-2.4869,-2.4832,-2.4811,-2.477,-2.4767,-2.4745,-2.4741,-2.4738,-2.4783,-2.4783,-2.4783,-2.4783,-2.5244,-2.5229,-2.5171,-2.5122,-2.5067,-2.5006,-2.4952,-2.489,-2.4822,-2.4795,-2.4781,-2.4773,-2.4772,-2.475,-2.4746,-2.4742,-2.4787,-2.4787,-2.4787,-2.5254,-2.5232,-2.5198,-2.5136,-2.5069,-2.5012,-2.496,-2.4901,-2.4821,-2.4786,-2.4772,-2.4772,-2.4758,-2.4756,-2.4719,-2.4714,-2.4705,0,0]},{"header":{"parameterUnit":"m.s-1","parameterCategory":1,"la1":30.2992,"la2":30.254,"lo1":-89.0895,"lo2":-89.0443,"dy":0.0025,"dx":0.0025,"nx":19,"ny":19,"refTime":"2026-05-23T09:00:00:Z","depth":0,"parameterNumber":3,"parameterNumberName":"V-component_of_WINDS"},"data":[0,0,0,2.975,2.975,2.9738,2.9738,2.973,2.973,0,0,0,0,0,0,0,0,0,0,0,2.9759,2.976,2.975,2.975,2.9738,2.9738,2.973,2.973,0,0,0,0,0,0,0,0,0,0,0,2.9759,2.976,2.976,2.975,2.9738,2.9738,2.973,2.9736,0,0,0,0,0,0,0,0,0,0,2.9746,2.9761,2.976,2.976,2.975,2.9738,2.9738,2.9736,2.9736,2.9738,0,2.9743,0,2.9736,2.973,2.973,0,0,0,2.9746,2.9761,2.9753,2.976,2.975,2.9738,2.9742,2.9736,2.9735,2.9738,2.9743,2.9743,2.9736,2.973,2.973,2.9762,2.9763,0,0,2.9747,2.976,2.9753,2.9753,2.9756,2.9743,2.9742,2.9735,2.9742,2.9743,2.9742,2.9736,2.973,2.973,2.9762,2.9762,0,0,0,2.9751,2.9761,2.9752,2.9753,2.9751,2.9743,2.9742,2.9742,2.9738,2.9742,2.9736,2.973,2.973,2.9762,2.9762,2.9793,0,0,0,2.9752,2.9764,2.9753,2.9761,2.9751,2.9746,2.9749,2.9739,2.9738,2.9736,2.973,2.973,2.9761,2.9762,2.9792,2.9806,0,0,0,2.9758,2.9764,2.9764,2.9762,2.9757,2.9746,2.9742,2.9738,2.9734,2.973,2.973,2.9761,2.9762,2.979,2.9803,2.9819,0,0,0,2.9769,2.9792,2.9765,2.9788,2.9757,2.9766,2.9742,2.9747,2.9747,2.973,2.9761,2.9762,2.979,2.9802,2.9817,2.9834,2.9843,0,0,2.9806,2.9797,2.981,2.9785,2.9802,2.9767,2.9787,2.9774,2.9761,2.9762,2.9763,2.9792,2.9803,2.9818,2.9884,2.9891,0,0,0,2.9826,2.9835,2.9836,2.9837,2.9828,2.982,2.9802,2.9797,2.9798,2.9765,2.9801,2.9807,2.9815,2.9823,2.9829,2.9835,2.9766,2.9766,2.9766,2.9897,2.9879,2.9898,2.9879,2.9879,2.986,2.9859,2.9848,2.983,2.9838,2.9839,2.9881,2.9891,2.9895,2.9901,2.9846,2.9846,2.9846,2.9846,2.9949,2.996,2.9934,2.9943,2.9923,2.993,2.9912,2.9898,2.9901,2.9879,2.9886,2.9864,2.9903,2.9907,2.9848,2.9848,2.9848,2.9848,2.9847,2.9995,2.9997,2.999,2.9988,2.9989,2.9967,2.9971,2.9952,2.9935,2.9941,2.9939,2.9939,2.9936,2.9941,2.9942,2.9942,2.9942,2.9942,2.9942,3.0045,3.0037,3.0043,3.0034,3.0031,3.0025,3.0005,3.0001,2.9993,2.9979,2.9979,2.9959,2.991,2.9898,2.9944,2.9944,2.9944,2.9943,2.9943,3.0106,3.0089,3.0099,3.0097,3.0084,3.0085,3.006,3.0055,3.0049,3.0051,3.0029,2.9996,2.9986,2.9981,2.9971,3.0033,3.0033,3.0033,3.0033,3.0145,3.0138,3.0143,3.014,3.0135,3.0113,3.0124,3.0107,3.0087,3.0082,3.007,3.0055,3.0051,3.0043,3.0037,3.0028,3.0103,3.0103,3.0103,3.0182,3.0173,3.0186,3.0167,3.0155,3.0145,3.0154,3.015,3.0124,3.0105,3.0078,3.0075,3.005,3.0044,3.0026,3.0017,3.0,0,0]}]]